Regional Weather Roundup
Issued by NWS

Home | Current Version | Previous Version | Graphics & Text | Print | Product List | Glossary On
Versions: 1 2 3 4 5 6 7 8 9 10 11 12 13 14 15 16 17 18 19 20 21 22 23 24 25 26 27 28 29 30 31 32 33 34 35 36 37 38 39 40 41 42 43 44 45 46 47 48 49 50
000
ASUS45 KCYS 230910
RWRWY

WYOMING REGIONAL WEATHER ROUNDUP
NATIONAL WEATHER SERVICE CHEYENNE WY
300 AM MDT FRI JUN 23 2017

NOTE:  "FAIR" INDICATES FEW OR NO CLOUDS BELOW 12,000 FEET
WITH NO SIGNIFICANT WEATHER AND/OR OBSTRUCTIONS TO VISIBILITY.

WYZ001-231000-
YELLOWSTONE NATIONAL PARK

CITY           SKY/WX    TMP DP  RH WIND       PRES   REMARKS
LK YELLOWSTONE   N/A     32  27  81 CALM      30.35F
W YELLOWSTONE  NOT AVBL

$$
WYZ002>013-054>058-071-098>099-231000-
NORTHERN WYOMING

CITY           SKY/WX    TMP DP  RH WIND       PRES   REMARKS
JACKSON        FAIR      46  30  53 NE3       30.26R
CODY           FAIR      45  35  68 CALM      30.32F
GREYBULL       FAIR      52  32  46 W13       30.26R
WORLAND        FAIR      50  38  63 W7        30.28S
SHERIDAN       FAIR      43  37  79 W8        30.28S
BUFFALO        FAIR      44  36  73 N7        30.28F
GILLETTE       FAIR      46  37  71 NW8       30.26R
NEWCASTLE      FAIR      52  32  46 NW20G26   30.23R

$$
WYZ014>020-022>026-101>103-231000-
CENTRAL WYOMING

CITY           SKY/WX    TMP DP  RH WIND       PRES   REMARKS
BIG PINEY      FAIR      41  34  76 CALM      30.27R
PINEDALE       FAIR      37  32  81 W3        30.27S
DUBOIS         FAIR      43  27  52 SE7       30.31S
LANDER         FAIR      48  32  53 VRB3      30.31R
RIVERTON       FAIR      48  32  53 NE6       30.31R
CASPER         FAIR      50  31  48 NE18      30.31R
DOUGLAS        LGT RAIN  50  37  61 N17G25    30.29R

$$
WYZ021-027>030-104>119-231000-
SOUTHERN WYOMING

CITY           SKY/WX    TMP DP  RH WIND       PRES   REMARKS
EVANSTON       FAIR      55  33  43 E6        30.26S
KEMMERER         N/A     50  27  40 E8G21     30.29R
FORT BRIDGER   FAIR      53  35  49 CALM      30.29S
ROCK SPRINGS   FAIR      50  27  40 NE22      30.27S
DIXON          FAIR      55  35  46 E5        30.22R
RAWLINS        FAIR      50  31  48 NE16      30.28R
SARATOGA       FAIR      50  32  50 N10G20    30.25R
LARAMIE        CLOUDY    50  33  52 N16G23    30.27R
CHEYENNE       CLOUDY    55  48  77 N7        30.23R
TORRINGTON     CLOUDY    56  38  50 N23G30    30.19R
PINE BLUFFS    CLOUDY    55  54  94 NE10      30.18R

$$



USA.gov is the U.S. government's official web portal to all federal, state and local government web resources and services.